�N����,����,�~����,�C��,���x,�C��,����,���ϕ���,�ő�u�ԕ���,�ő厞����,���˗�,�I�_���x,�n�����x,�ő啗���N��,DTYPE
"16/04/16","00:10",0.0,6.9,69.2,1016.8,326.5,3.6,4.8,335.9,0.00,1.7,13.0,"00:03:46",1
"16/04/16","00:20",0.0,6.6,70.5,1016.4,322.9,3.0,4.0,340.6,0.00,1.7,12.8,"00:13:44",1
"16/04/16","00:30",0.0,6.4,70.6,1016.4,303.8,2.5,2.9,307.1,0.00,1.5,12.7,"00:21:12",1
"16/04/16","00:40",0.0,6.5,70.2,1016.4,322.2,3.5,5.2,336.6,0.00,1.5,12.7,"00:33:52",1
"16/04/16","00:50",0.0,6.7,68.8,1016.4,324.0,3.5,4.9,324.4,0.00,1.4,12.7,"00:44:00",1
"16/04/16","01:00",0.0,6.5,70.2,1016.6,322.7,3.0,4.5,315.1,0.00,1.5,12.7,"00:53:28",1
"16/04/16","01:10",0.0,6.1,71.2,1016.4,320.8,2.3,3.6,328.8,0.00,1.3,12.4,"01:08:08",1
"16/04/16","01:20",0.0,5.8,71.9,1016.4,297.9,2.1,4.0,334.0,0.00,1.2,12.3,"01:11:20",1
"16/04/16","01:30",0.0,5.5,73.0,1016.1,283.4,1.8,2.2,280.1,0.00,1.1,12.4,"01:25:28",1
"16/04/16","01:40",0.0,5.3,73.4,1016.4,282.2,1.5,2.1,297.6,0.00,1.0,12.3,"01:39:28",1
"16/04/16","01:50",0.0,5.7,72.0,1016.1,307.5,3.0,4.2,321.2,0.00,1.1,12.1,"01:47:12",1
"16/04/16","02:00",0.0,5.6,71.2,1015.9,292.6,1.8,3.1,307.5,0.00,0.8,12.2,"01:54:56",1
"16/04/16","02:10",0.0,5.4,71.5,1015.6,285.5,1.8,2.5,301.2,0.00,0.7,12.2,"02:05:36",1
"16/04/16","02:20",0.0,5.3,73.9,1015.6,306.2,2.0,2.7,316.0,0.00,1.1,12.1,"02:16:56",1
"16/04/16","02:30",0.0,4.8,76.4,1015.4,314.2,2.1,2.7,323.6,0.00,1.0,12.1,"02:22:08",1
"16/04/16","02:40",0.0,4.8,76.0,1015.2,311.1,2.2,2.9,323.1,0.00,1.0,12.1,"02:37:28",1
"16/04/16","02:50",0.0,4.9,74.9,1015.4,284.5,1.7,2.2,313.3,0.00,0.9,12.0,"02:44:56",1
"16/04/16","03:00",0.0,5.0,73.6,1016.1,276.0,2.1,2.9,286.7,0.00,0.7,12.0,"02:55:44",1
"16/04/16","03:10",0.0,5.1,74.3,1015.9,319.6,2.1,3.6,323.1,0.00,0.9,11.7,"03:05:20",1
"16/04/16","03:20",0.0,4.5,76.7,1015.6,309.1,1.6,2.9,315.2,0.00,0.8,11.6,"03:13:28",1
"16/04/16","03:30",0.0,4.2,78.1,1015.6,284.1,1.2,1.7,312.3,0.00,0.8,11.7,"03:26:56",1
"16/04/16","03:40",0.0,4.0,79.4,1015.4,308.4,1.8,2.5,319.3,0.00,0.8,11.7,"03:33:20",1
"16/04/16","03:50",0.0,4.2,79.0,1015.2,286.1,1.7,2.2,297.2,0.00,0.9,11.5,"03:49:44",1
"16/04/16","04:00",0.0,4.5,77.7,1015.4,302.0,2.0,3.3,313.2,0.00,1.0,11.5,"03:55:04",1
"16/04/16","04:10",0.0,4.2,79.0,1014.7,319.2,2.1,2.8,327.0,0.00,0.9,11.5,"04:04:32",1
"16/04/16","04:20",0.0,3.8,81.1,1015.4,303.8,1.7,2.5,318.6,0.00,0.9,11.4,"04:14:40",1
"16/04/16","04:30",0.0,3.7,82.0,1015.4,303.0,1.1,2.5,320.2,0.00,1.0,11.4,"04:20:02",1
"16/04/16","04:40",0.0,3.6,82.6,1015.2,312.8,2.0,2.7,321.0,0.00,1.0,11.3,"04:38:16",1
"16/04/16","04:50",0.0,3.8,83.0,1015.4,316.8,2.0,3.2,337.9,0.00,1.2,11.5,"04:44:08",1
"16/04/16","05:00",0.0,3.9,81.4,1014.9,293.0,2.0,3.2,320.8,0.00,1.1,11.4,"04:59:20",1
"16/04/16","05:10",0.0,4.0,79.9,1015.6,300.5,1.8,3.3,319.1,0.00,0.9,11.3,"05:00:08",1
"16/04/16","05:20",0.0,4.1,80.2,1015.6,303.9,2.1,2.8,333.3,0.00,1.0,11.0,"05:14:32",1
"16/04/16","05:30",0.0,4.3,78.6,1016.1,292.6,1.8,2.7,320.2,0.00,1.0,11.1,"05:20:02",1
"16/04/16","05:40",0.0,4.3,79.9,1016.1,322.4,2.0,2.7,316.2,0.00,1.2,11.0,"05:31:44",1
"16/04/16","05:50",0.0,4.1,80.6,1015.9,286.7,1.6,2.1,327.5,0.00,1.1,11.2,"05:40:08",1
"16/04/16","06:00",0.0,4.6,78.2,1015.9,296.9,2.1,3.1,319.2,0.00,1.2,11.0,"05:52:08",1
"16/04/16","06:10",0.0,5.3,76.3,1015.9,295.3,2.1,3.1,314.3,0.01,1.5,11.2,"06:07:28",1
"16/04/16","06:20",0.0,5.7,75.7,1016.1,315.2,2.0,2.7,319.8,0.02,1.8,11.1,"06:13:20",1
"16/04/16","06:30",0.0,6.4,75.8,1016.4,303.7,1.0,2.7,322.1,0.04,2.5,10.9,"06:20:32",1
"16/04/16","06:40",0.0,6.7,75.8,1016.4,317.1,2.0,2.7,320.2,0.05,2.8,10.9,"06:39:44",1
"16/04/16","06:50",0.0,7.2,74.1,1017.1,307.1,1.8,2.7,317.6,0.07,2.9,11.0,"06:40:40",1
"16/04/16","07:00",0.0,8.4,66.6,1017.3,296.0,1.0,1.8,323.6,0.09,2.6,11.3,"06:57:20",1
"16/04/16","07:10",0.0,9.2,64.5,1016.8,287.9,0.6,1.0,281.9,0.11,2.9,11.2,"07:00:24",1
"16/04/16","07:20",0.0,9.9,62.2,1016.8,279.0,0.3,0.8,292.6,0.14,3.1,11.2,"07:11:44",1
"16/04/16","07:30",0.0,10.3,63.6,1017.1,227.1,0.3,1.0,259.6,0.16,3.7,11.4,"07:26:08",1
"16/04/16","07:40",0.0,10.8,57.5,1017.1,249.0,0.6,1.3,240.2,0.18,2.8,11.6,"07:36:08",1
"16/04/16","07:50",0.0,11.5,54.0,1016.8,165.9,0.3,0.8,127.8,0.21,2.6,11.6,"07:48:56",1
"16/04/16","08:00",0.0,11.9,53.3,1017.1,244.2,0.6,1.1,106.8,0.23,2.8,11.7,"07:52:32",1
"16/04/16","08:10",0.0,12.7,54.4,1017.1,247.6,0.5,1.2,217.0,0.24,3.8,11.9,"08:03:20",1
"16/04/16","08:20",0.0,13.5,46.9,1016.6,253.9,0.2,1.0,110.8,0.26,2.4,12.1,"08:12:16",1
"16/04/16","08:30",0.0,13.9,48.6,1016.6,114.3,0.3,1.4,110.3,0.30,3.3,12.2,"08:28:16",1
"16/04/16","08:40",0.0,13.9,46.0,1017.3,125.2,0.7,1.4,128.5,0.32,2.5,12.2,"08:38:56",1
"16/04/16","08:50",0.0,14.5,45.6,1016.8,194.1,0.7,1.7,191.3,0.33,2.9,12.4,"08:44:24",1
"16/04/16","09:00",0.0,14.9,41.3,1016.6,107.9,0.6,1.4,143.1,0.38,1.9,12.7,"08:50:56",1
"16/04/16","09:10",0.0,15.3,42.2,1016.4,36.9,0.8,1.8,353.9,0.41,2.6,12.9,"09:04:32",1
"16/04/16","09:20",0.0,16.2,39.0,1016.1,216.5,0.6,2.0,189.0,0.41,2.3,13.2,"09:19:28",1
"16/04/16","09:30",0.0,16.1,39.8,1015.9,192.7,1.0,2.5,179.3,0.36,2.5,13.4,"09:29:44",1
"16/04/16","09:40",0.0,16.9,38.4,1016.1,176.1,1.1,2.2,180.5,0.47,2.7,13.7,"09:31:28",1
"16/04/16","09:50",0.0,16.9,35.6,1015.6,176.5,1.6,3.4,192.3,0.49,1.6,13.8,"09:42:24",1
"16/04/16","10:00",0.0,17.5,32.7,1015.4,214.3,0.8,2.2,149.5,0.48,1.0,14.0,"09:57:12",1
"16/04/16","10:10",0.0,18.4,32.7,1015.4,190.2,1.0,2.0,142.5,0.49,1.8,14.5,"10:00:02",1
"16/04/16","10:20",0.0,17.9,33.4,1015.4,109.9,1.2,3.2,103.1,0.46,1.6,14.6,"10:10:40",1
"16/04/16","10:30",0.0,18.5,35.7,1014.9,146.3,1.5,3.2,123.2,0.49,3.1,15.0,"10:20:32",1
"16/04/16","10:40",0.0,18.7,31.6,1014.9,186.1,1.6,3.4,179.2,0.48,1.5,15.0,"10:30:48",1
"16/04/16","10:50",0.0,19.1,35.2,1014.2,149.8,1.1,2.4,167.6,0.44,3.4,15.4,"10:45:20",1
"16/04/16","11:00",0.0,19.8,33.9,1014.2,175.9,0.6,1.7,76.5,0.47,3.5,15.3,"10:53:52",1
"16/04/16","11:10",0.0,20.4,33.5,1014.0,74.4,0.6,1.9,125.7,0.57,3.9,15.9,"11:00:40",1
"16/04/16","11:20",0.0,20.7,30.7,1013.8,11.6,1.0,2.8,38.7,0.55,2.9,16.0,"11:13:04",1
"16/04/16","11:30",0.0,20.9,28.7,1013.5,170.5,0.7,1.7,53.2,0.59,2.1,16.5,"11:22:56",1
"16/04/16","11:40",0.0,21.6,27.9,1013.5,270.4,0.6,1.9,309.5,0.57,2.3,16.5,"11:36:00",1
"16/04/16","11:50",0.0,21.8,26.4,1013.3,177.5,0.8,2.4,114.7,0.60,1.7,17.0,"11:42:16",1
"16/04/16","12:00",0.0,22.3,25.5,1012.6,222.4,0.8,2.2,200.8,0.60,1.7,17.1,"11:54:40",1
"16/04/16","12:10",0.0,23.1,27.8,1012.6,123.5,1.1,3.4,120.3,0.63,3.6,17.2,"12:01:52",1
"16/04/16","12:20",0.0,23.1,23.0,1012.6,141.7,1.6,3.3,116.1,0.65,0.9,17.5,"12:12:08",1
"16/04/16","12:30",0.0,22.9,24.0,1012.1,153.4,1.7,5.2,185.5,0.64,1.3,17.7,"12:25:04",1
"16/04/16","12:40",0.0,23.9,25.2,1011.9,167.5,1.7,3.1,145.0,0.64,2.8,18.1,"12:36:16",1
"16/04/16","12:50",0.0,23.8,20.4,1011.9,139.2,1.7,4.0,168.2,0.64,-0.2,18.4,"12:41:04",1
"16/04/16","13:00",0.0,24.4,20.8,1011.9,170.6,2.1,4.3,186.2,0.64,0.6,18.5,"12:52:32",1
"16/04/16","13:10",0.0,24.2,22.5,1011.6,171.4,2.1,4.1,187.7,0.60,1.5,18.8,"13:00:02",1
"16/04/16","13:20",0.0,24.7,20.4,1011.6,179.0,2.1,3.9,199.3,0.61,0.6,18.8,"13:17:52",1
"16/04/16","13:30",0.0,24.9,21.1,1010.9,139.2,2.5,4.9,121.7,0.61,1.2,19.2,"13:21:20",1
"16/04/16","13:40",0.0,24.0,21.2,1010.9,170.9,3.1,5.0,163.8,0.55,0.5,19.2,"13:36:08",1
"16/04/16","13:50",0.0,25.2,19.8,1010.9,156.1,1.7,3.4,125.8,0.58,0.6,19.5,"13:44:00",1
"16/04/16","14:00",0.0,25.0,18.9,1010.9,155.5,2.6,4.8,187.0,0.57,-0.2,19.5,"13:51:44",1
"16/04/16","14:10",0.0,25.3,19.2,1010.0,170.5,1.8,3.5,186.0,0.55,0.2,19.8,"14:09:42",1
"16/04/16","14:20",0.0,25.3,19.7,1009.7,167.1,2.5,4.5,146.9,0.53,0.6,19.9,"14:16:00",1
"16/04/16","14:30",0.0,25.3,22.8,1009.7,175.8,2.2,4.7,117.3,0.51,2.6,20.1,"14:24:40",1
"16/04/16","14:40",0.0,25.5,18.9,1009.7,176.2,2.5,5.4,224.3,0.49,0.2,20.1,"14:39:28",1
"16/04/16","14:50",0.0,25.8,20.5,1009.5,205.1,1.8,4.0,206.2,0.48,1.5,20.0,"14:44:00",1
"16/04/16","15:00",0.0,25.4,20.4,1009.3,210.7,2.8,4.7,225.4,0.45,1.1,20.1,"14:53:44",1
"16/04/16","15:10",0.0,25.4,20.0,1009.5,178.5,2.7,5.1,159.2,0.39,0.9,20.2,"15:01:52",1
"16/04/16","15:20",0.0,24.9,22.7,1009.5,205.6,2.1,3.9,220.1,0.27,2.2,20.0,"15:14:08",1
"16/04/16","15:30",0.0,24.5,20.1,1009.7,194.2,1.5,3.3,160.2,0.17,0.2,20.0,"15:27:04",1
"16/04/16","15:40",0.0,24.4,21.4,1009.5,190.8,1.8,3.6,234.6,0.15,1.0,19.8,"15:39:44",1
"16/04/16","15:50",0.0,24.5,22.1,1009.3,213.8,2.0,4.3,208.7,0.17,1.5,20.0,"15:47:28",1
"16/04/16","16:00",0.0,24.5,28.9,1009.5,184.7,1.8,3.5,128.5,0.22,5.3,19.9,"15:56:48",1
"16/04/16","16:10",0.0,24.1,29.2,1009.5,122.2,2.3,4.8,119.4,0.21,5.1,19.7,"16:01:36",1
"16/04/16","16:20",0.0,23.7,31.3,1009.5,113.4,2.3,4.0,111.6,0.09,5.8,19.7,"16:13:44",1
"16/04/16","16:30",0.0,23.3,32.7,1010.0,104.9,2.0,3.9,110.6,0.07,6.0,19.7,"16:20:48",1
"16/04/16","16:40",0.0,23.2,34.0,1010.2,87.8,1.6,4.0,113.3,0.08,6.5,19.6,"16:36:32",1
"16/04/16","16:50",0.0,23.1,35.3,1010.2,84.9,1.7,4.0,109.1,0.08,7.0,19.4,"16:44:48",1
"16/04/16","17:00",0.0,23.0,35.7,1010.2,96.2,2.0,4.0,100.6,0.09,7.1,19.4,"16:52:32",1
"16/04/16","17:10",0.0,22.8,37.3,1010.2,90.0,1.8,3.5,122.4,0.06,7.5,19.2,"17:01:28",1
"16/04/16","17:20",0.0,22.3,38.5,1010.0,66.2,1.6,3.7,47.1,0.03,7.5,19.2,"17:11:28",1
"16/04/16","17:30",0.0,22.1,39.6,1010.2,117.5,2.2,4.5,125.5,0.03,7.8,19.1,"17:29:44",1
"16/04/16","17:40",0.0,22.0,42.7,1010.4,150.4,1.8,4.1,163.3,0.03,8.8,18.9,"17:36:00",1
"16/04/16","17:50",0.0,21.5,46.7,1010.7,270.2,1.5,3.5,304.0,0.02,9.7,18.8,"17:45:20",1
"16/04/16","18:00",0.0,20.8,50.1,1010.7,320.3,1.2,2.1,347.0,0.00,10.1,18.7,"17:55:36",1
"16/04/16","18:10",0.0,20.4,52.4,1010.4,327.5,1.0,2.7,339.8,0.00,10.4,18.4,"18:09:36",1
"16/04/16","18:20",0.0,19.9,55.3,1011.4,295.3,1.0,2.2,332.5,0.00,10.7,18.4,"18:11:12",1
"16/04/16","18:30",0.0,19.4,57.7,1011.2,312.6,1.6,3.2,327.7,0.00,10.9,18.3,"18:24:40",1
"16/04/16","18:40",0.0,19.2,58.7,1011.6,328.9,2.1,3.1,330.7,0.00,11.0,17.9,"18:30:16",1
"16/04/16","18:50",0.0,19.0,59.7,1011.4,314.4,2.1,3.3,343.5,0.00,11.0,18.2,"18:46:24",1
"16/04/16","19:00",0.0,18.7,61.7,1011.6,341.1,1.3,2.6,343.2,0.00,11.2,18.0,"18:51:44",1
"16/04/16","19:10",0.0,18.3,62.7,1011.6,334.9,1.3,2.2,343.2,0.00,11.1,17.8,"19:00:02",1
"16/04/16","19:20",0.0,18.1,64.3,1011.2,338.5,1.7,2.4,340.5,0.00,11.3,17.9,"19:15:12",1
"16/04/16","19:30",0.0,17.9,64.6,1011.6,340.4,1.6,2.6,330.1,0.00,11.2,17.7,"19:22:32",1
"16/04/16","19:40",0.0,17.9,64.8,1011.4,10.5,0.7,1.3,0.4,0.00,11.2,17.5,"19:38:48",1
"16/04/16","19:50",0.0,17.7,65.5,1011.4,336.3,1.0,1.7,333.4,0.00,11.2,17.4,"19:42:16",1
"16/04/16","20:00",0.0,17.6,65.9,1011.4,355.7,1.0,2.0,338.5,0.00,11.2,17.4,"19:59:04",1
"16/04/16","20:10",0.0,17.4,66.0,1011.6,337.9,1.5,2.0,339.6,0.00,11.0,17.2,"20:00:40",1
"16/04/16","20:20",0.0,17.2,68.1,1011.9,337.3,1.3,1.9,339.2,0.00,11.3,17.3,"20:10:48",1
"16/04/16","20:30",0.0,17.0,69.5,1011.6,324.4,1.0,2.1,352.1,0.00,11.4,17.2,"20:25:44",1
"16/04/16","20:40",0.0,16.7,69.6,1011.6,330.1,1.3,2.1,338.0,0.00,11.2,17.3,"20:39:36",1
"16/04/16","20:50",0.0,16.4,71.3,1011.6,334.7,1.6,2.4,339.3,0.00,11.2,16.9,"20:42:08",1
"16/04/16","21:00",0.0,16.1,70.1,1011.6,310.2,1.2,1.7,332.5,0.00,10.7,16.9,"20:57:04",1
"16/04/16","21:10",0.0,15.9,71.7,1011.6,312.3,1.1,1.6,333.5,0.00,10.8,16.7,"21:06:00",1
"16/04/16","21:20",0.0,15.5,71.9,1011.9,316.1,1.2,1.4,318.9,0.00,10.5,16.8,"21:16:56",1
"16/04/16","21:30",0.0,15.5,71.3,1011.9,313.2,1.6,2.6,347.5,0.00,10.4,16.7,"21:29:36",1
"16/04/16","21:40",0.0,15.2,73.4,1011.4,321.4,1.0,1.8,333.7,0.00,10.5,16.6,"21:30:40",1
"16/04/16","21:50",0.0,14.8,75.3,1010.9,319.2,1.2,1.9,326.0,0.00,10.5,16.5,"21:41:44",1
"16/04/16","22:00",0.0,14.4,77.0,1010.7,312.9,1.1,1.6,325.6,0.00,10.5,16.2,"21:52:56",1
"16/04/16","22:10",0.0,14.6,76.2,1011.2,282.7,1.2,1.7,265.7,0.00,10.5,16.4,"22:06:16",1
"16/04/16","22:20",0.0,14.8,76.0,1010.4,319.4,1.3,1.9,337.7,0.00,10.7,16.3,"22:12:16",1
"16/04/16","22:30",0.0,14.7,77.1,1010.9,323.9,1.6,2.1,327.8,0.00,10.8,16.2,"22:25:12",1
"16/04/16","22:40",0.0,14.5,76.2,1010.9,292.4,1.0,1.3,297.1,0.00,10.4,16.3,"22:34:16",1
"16/04/16","22:50",0.0,14.6,77.1,1010.2,327.7,1.3,2.0,334.3,0.00,10.7,16.1,"22:47:28",1
"16/04/16","23:00",0.0,14.3,78.6,1010.0,284.6,0.8,1.3,272.5,0.00,10.7,16.1,"22:56:00",1
"16/04/16","23:10",0.0,14.2,78.8,1010.0,287.9,1.5,1.7,265.6,0.00,10.6,15.9,"23:07:04",1
"16/04/16","23:20",0.0,14.4,77.9,1010.2,316.1,1.6,2.2,322.5,0.00,10.6,15.9,"23:15:52",1
"16/04/16","23:30",0.0,14.5,77.2,1010.4,331.3,1.6,2.2,324.2,0.00,10.6,15.9,"23:22:00",1
"16/04/16","23:40",0.0,14.5,76.7,1010.2,311.7,1.1,1.9,337.4,0.00,10.5,15.8,"23:38:48",1
"16/04/16","23:50",0.0,14.4,76.2,1009.7,306.0,1.2,1.8,343.3,0.00,10.3,15.7,"23:40:16",1
"16/04/16","24:00",0.0,14.3,76.0,1010.0,286.4,1.0,1.8,305.0,0.00,10.2,15.8,"23:58:48",1
